Date,TemperatureHighF,TemperatureAvgF,TemperatureLowF,DewpointHighF,DewpointAvgF,DewpointLowF,HumidityHigh,HumidityAvg,HumidityLow,PressureMaxIn,PressureMinIn,WindSpeedMaxMPH,WindSpeedAvgMPH,GustSpeedMaxMPH,PrecipitationSumIn
2014-1-1,19.6,5.2,-10.8,10.0,-1.6,-15.0,91,75,50,30.41,30.16,13,1,17,0.00
2014-1-2,9.0,4.4,-1.6,5.0,0.7,-5.0,87,84,75,30.41,29.97,5,0,9,0.00
2014-1-3,6.2,-0.0,-15.2,0.0,-6.7,-20.0,86,74,56,30.39,29.88,13,2,17,0.00
2014-1-4,19.3,-3.0,-18.5,4.0,-9.6,-23.0,86,75,48,30.49,30.26,2,0,5,0.00
2014-1-5,32.7,13.4,-8.4,28.0,8.2,-12.0,95,81,48,30.36,30.01,3,0,8,0.04
2014-1-6,40.3,32.9,25.4,40.0,29.1,13.0,99,87,59,29.99,29.28,14,2,20,0.54
2014-1-7,25.0,9.6,2.9,14.0,-5.2,-99.9,62,53,44,30.12,29.44,21,-4,27,0.00
2014-1-8,18.5,6.9,-4.8,3.0,-2.7,-9.0,87,66,48,30.44,30.13,9,1,14,0.00
2014-1-9,23.5,3.9,-6.4,9.0,-1.6,-10.0,88,79,49,30.66,30.41,9,1,21,0.00
2014-1-10,23.4,10.0,-6.2,19.0,6.6,-10.0,93,86,77,30.61,30.30,1,0,2,0.00
2014-1-11,33.0,29.1,18.4,32.0,28.2,16.0,98,96,90,30.30,29.21,4,0,9,0.00
2014-1-12,42.6,38.7,32.6,41.0,28.9,-99.9,99,71,58,29.91,29.23,24,-6,27,0.29
2014-1-13,43.8,33.0,24.8,31.0,26.9,23.0,94,79,53,30.08,29.86,3,0,8,0.05
2014-1-14,37.5,33.1,28.8,37.0,32.0,27.0,98,95,92,29.86,29.64,5,0,6,0.40
2014-1-15,44.2,32.9,25.4,36.0,30.2,24.0,98,90,64,29.99,29.74,4,0,7,0.09
2014-1-16,33.6,31.0,27.0,33.0,29.9,26.0,97,96,91,29.94,29.87,0,0,4,0.00
2014-1-17,40.3,31.7,22.2,33.0,28.2,21.0,98,87,55,29.94,29.87,3,0,7,0.11
2014-1-18,32.6,26.5,20.2,30.0,25.1,19.0,96,94,88,29.92,29.68,2,0,9,0.01
2014-1-19,29.8,27.0,23.6,28.0,22.7,19.0,97,84,68,29.71,29.47,8,1,18,0.01
2014-1-20,32.8,25.0,5.5,30.0,18.2,-4.0,92,75,62,29.92,29.45,11,2,18,0.03
2014-1-21,9.0,5.0,-0.5,-4.0,-6.2,-8.0,73,61,49,30.08,29.92,8,1,11,0.00
2014-1-22,12.6,2.8,-3.5,-4.0,-7.9,-12.0,75,62,46,29.97,29.71,8,1,16,0.00
2014-1-23,13.2,3.7,-11.6,-3.0,-7.2,-16.0,84,62,47,30.14,29.92,12,2,16,0.00
2014-1-24,12.3,4.0,-1.3,-1.0,-7.1,-10.0,80,61,42,30.26,30.00,11,2,18,0.00
2014-1-25,27.8,16.4,2.7,22.0,10.0,-2.0,91,76,54,29.99,29.29,3,0,16,0.00
2014-1-26,21.3,12.3,6.0,17.0,-0.9,-9.0,90,57,38,29.86,29.29,17,4,24,0.00
2014-1-27,32.4,18.7,11.7,24.0,6.7,-4.0,82,62,36,29.96,29.52,21,3,27,0.00
2014-1-28,15.7,8.3,0.6,-3.0,-5.3,-8.0,80,56,36,30.28,29.97,11,2,20,0.00
2014-1-29,21.5,9.3,-5.8,-1.0,-4.9,-10.0,86,57,30,30.24,29.92,12,2,16,0.00
2014-1-30,28.1,10.6,-4.6,9.0,1.8,-9.0,86,70,42,30.43,30.15,4,0,10,0.00
2014-1-31,37.1,21.9,9.4,20.0,13.5,6.0,89,72,44,30.17,29.98,11,1,16,0.01
2014-2-1,39.7,26.3,12.2,30.0,20.8,10.0,94,81,51,30.35,30.00,3,0,7,0.00
2014-2-2,37.3,33.1,28.1,35.0,31.0,27.0,97,92,77,30.07,29.84,6,0,12,0.05
2014-2-3,34.3,27.4,11.9,27.0,18.2,9.0,91,69,54,30.29,30.08,5,0,10,0.00
2014-2-4,31.5,19.3,4.1,17.0,11.6,1.0,93,74,47,30.46,30.29,5,0,10,0.00
2014-2-5,24.5,21.1,9.6,20.0,17.5,7.0,93,86,63,30.34,29.75,2,0,8,0.00
2014-2-6,22.7,8.5,-3.6,8.0,2.0,-7.0,93,76,47,30.27,29.96,5,0,12,0.01
2014-2-7,26.7,9.4,-13.7,12.0,-0.2,-18.0,88,68,47,30.23,30.12,9,1,19,0.00
2014-2-8,25.8,14.8,-3.2,11.0,3.7,-7.0,87,63,42,30.27,30.14,7,1,15,0.00
2014-2-9,27.9,20.1,10.7,19.0,11.5,7.0,92,71,44,30.19,29.94,7,0,11,0.05
2014-2-10,21.0,13.8,-4.9,19.0,7.2,-9.0,92,76,55,30.21,29.90,13,2,20,0.00
2014-2-11,18.9,4.4,-14.7,7.0,-4.9,-19.0,87,67,48,30.48,30.21,15,2,18,0.00
2014-2-12,29.4,7.5,-11.0,4.0,-4.3,-15.0,85,63,26,30.57,30.44,9,0,10,0.06
2014-2-13,35.4,19.9,-0.9,32.0,16.5,-5.0,94,87,76,30.42,29.17,7,1,17,0.00
2014-2-14,34.9,29.8,25.7,32.0,26.3,22.0,95,86,77,29.68,28.88,15,3,27,0.00
2014-2-15,32.3,25.7,17.6,27.0,22.7,16.0,94,88,71,29.84,29.55,5,0,16,0.05
2014-2-16,27.8,19.5,8.4,22.0,8.1,-1.0,81,62,46,29.99,29.56,16,4,25,0.00
2014-2-17,22.2,11.1,-5.0,-1.0,-3.9,-9.0,83,53,35,30.38,30.00,15,4,22,0.01
2014-2-18,20.9,9.5,-9.0,19.0,6.2,-13.0,93,86,75,30.38,30.02,3,0,4,0.00
2014-2-19,29.3,21.0,6.6,26.0,18.7,4.0,95,91,82,30.10,29.80,1,0,5,0.00
2014-2-20,45.5,36.0,23.4,32.0,27.5,22.0,97,74,40,30.19,29.84,11,2,21,0.26
2014-2-21,35.4,33.5,28.7,34.0,32.5,28.0,97,96,94,30.14,29.71,3,0,10,0.40
2014-2-22,48.4,36.0,18.8,32.0,22.7,15.0,97,64,32,29.90,29.77,13,2,24,0.21
2014-2-23,46.5,37.0,27.0,29.0,22.2,16.0,86,59,31,29.93,29.75,10,1,16,0.24
2014-2-24,34.0,25.6,16.4,23.0,11.4,6.0,87,56,41,29.91,29.73,13,5,23,0.00
2014-2-25,22.1,15.7,4.2,8.0,6.1,1.0,87,67,52,29.95,29.86,11,2,16,0.00
2014-2-26,22.9,8.2,-5.7,14.0,0.7,-10.0,88,73,40,29.92,29.76,15,2,20,0.00
2014-2-27,24.3,12.5,0.4,12.0,1.2,-10.0,86,63,35,29.86,29.57,15,2,21,0.00
2014-2-28,19.7,8.1,-3.8,-3.0,-7.8,-16.0,82,51,31,30.46,29.88,13,3,19,0.00
2014-3-1,28.5,12.6,-7.7,14.0,0.0,-12.0,84,61,32,30.47,30.07,13,0,13,0.00
2014-3-2,28.5,22.9,16.5,21.0,13.4,6.0,82,68,53,30.07,30.00,7,1,12,0.00
2014-3-3,18.9,11.5,-2.3,5.0,-1.9,-8.0,79,56,39,30.30,30.04,13,2,18,0.00
2014-3-4,28.3,11.2,-10.4,12.0,-3.0,-15.0,84,58,24,30.38,30.23,6,0,9,0.00
2014-3-5,24.2,16.9,5.3,14.0,9.4,-3.0,87,73,49,30.54,30.27,5,0,12,0.00
2014-3-6,33.1,12.4,-9.4,8.0,-4.7,-14.0,85,53,18,30.67,30.52,5,0,8,0.03
2014-3-7,38.5,15.8,-8.3,19.0,4.2,-12.0,87,65,26,30.52,30.00,4,0,15,0.03
2014-3-8,46.1,26.7,8.5,27.0,17.4,6.0,91,70,45,29.98,29.73,15,2,16,0.00
2014-3-9,32.3,24.8,14.4,14.0,10.5,5.0,85,57,33,29.95,29.86,12,2,17,0.00
2014-3-10,35.9,28.0,19.1,28.0,22.1,13.0,93,79,64,29.86,29.62,6,0,6,0.02
2014-3-11,47.7,35.2,25.6,37.0,29.6,24.0,96,82,52,29.73,29.49,7,1,19,0.17
2014-3-12,34.1,31.2,26.6,33.0,29.8,25.0,96,94,92,29.72,29.12,5,0,9,0.29
2014-3-13,27.9,15.3,10.4,26.0,8.7,-1.0,93,76,57,29.91,29.08,17,5,24,0.00
2014-3-14,31.4,19.7,7.1,22.0,8.8,-1.0,90,64,47,30.14,29.87,5,0,11,0.07
2014-3-15,45.9,34.0,23.1,34.0,26.6,20.0,90,75,60,29.86,29.64,22,2,22,0.23
2014-3-16,34.8,21.1,11.8,25.0,7.1,-4.0,89,56,37,30.25,29.83,18,8,24,0.02
2014-3-17,25.6,13.5,0.9,4.0,-1.1,-5.0,80,55,33,30.23,30.05,7,0,15,0.00
2014-3-18,40.5,18.5,-2.0,17.0,3.1,-6.0,86,59,19,30.37,30.19,3,0,7,0.10
2014-3-19,38.8,26.0,9.8,29.0,19.1,7.0,95,77,50,30.41,30.03,9,0,13,0.14
2014-3-20,42.7,35.1,29.7,37.0,30.5,27.0,96,84,61,30.01,29.58,8,1,21,0.18
2014-3-21,37.0,32.2,22.2,27.0,22.6,17.0,83,68,51,29.99,29.67,14,4,23,0.26
2014-3-22,40.1,27.2,14.0,31.0,21.4,11.0,91,79,61,30.02,29.67,14,1,18,0.06
2014-3-23,32.9,26.2,13.0,24.0,12.5,-2.0,93,58,37,30.13,29.89,16,4,20,0.00
2014-3-24,25.5,14.7,1.8,4.0,0.0,-4.0,83,54,34,30.16,30.03,13,2,21,0.00
2014-3-25,33.8,15.7,-5.3,15.0,4.9,-9.0,86,66,35,30.16,29.99,10,0,15,0.04
2014-3-26,29.2,23.1,18.1,15.0,10.8,1.0,82,60,43,30.02,29.68,17,5,29,0.01
2014-3-27,38.0,25.9,14.8,23.0,6.8,-2.0,74,46,25,30.30,30.02,12,2,21,0.03
2014-3-28,37.9,33.5,30.1,35.0,30.3,20.0,97,88,63,30.18,29.92,3,0,7,0.16
2014-3-29,48.3,41.3,33.7,39.0,36.0,33.0,97,82,65,30.25,30.01,7,1,9,0.09
2014-3-30,39.5,36.9,34.5,36.0,34.2,33.0,96,90,82,30.06,29.71,7,1,16,1.13
2014-3-31,42.3,36.2,32.6,34.0,30.2,27.0,96,80,62,30.06,29.74,10,2,21,0.04
2014-4-1,55.4,39.6,29.0,33.0,28.2,24.0,90,66,38,30.10,29.98,8,0,11,0.00
2014-4-2,55.9,37.3,24.4,36.0,28.2,17.0,95,73,37,30.11,29.96,7,0,10,0.00
2014-4-3,45.6,34.5,22.7,29.0,24.5,21.0,95,70,47,30.15,30.04,10,1,16,0.00
2014-4-4,47.5,33.9,21.1,32.0,25.4,19.0,95,74,43,30.18,29.94,7,1,15,0.21
2014-4-5,45.7,37.8,33.0,39.0,30.9,24.0,97,78,53,29.93,29.67,16,3,24,0.31
2014-4-6,50.5,38.6,27.4,29.0,23.4,18.0,89,57,30,30.16,29.89,12,3,26,0.00
2014-4-7,56.4,40.8,25.6,37.0,29.0,24.0,94,68,33,30.23,29.95,7,0,9,0.05
2014-4-8,49.4,43.0,37.8,47.0,40.6,33.0,97,91,70,29.94,29.29,12,1,22,0.64
2014-4-9,45.6,40.8,28.0,35.0,26.5,12.0,91,60,28,29.94,29.48,14,3,23,0.00
2014-4-10,61.9,42.8,21.6,30.0,23.1,19.0,90,52,22,30.12,29.89,10,1,17,0.00
2014-4-11,65.5,51.1,38.8,44.0,35.0,24.0,95,60,21,30.02,29.87,7,1,15,0.05
2014-4-12,63.1,47.1,33.5,44.0,35.4,30.0,98,70,29,30.21,30.00,14,2,20,0.01
2014-4-13,43.3,39.2,36.8,39.0,36.4,34.0,95,89,84,30.31,30.04,6,0,13,0.36
2014-4-14,75.0,55.2,33.9,56.0,45.7,33.0,98,74,45,30.04,29.74,17,1,21,0.00
2014-4-15,63.8,58.5,35.9,60.0,54.4,34.0,94,86,73,29.81,29.44,12,2,22,0.78
2014-4-16,35.8,29.2,24.2,33.0,18.2,-99.9,93,68,46,30.64,29.73,16,-6,28,0.03
2014-4-17,45.5,32.1,18.6,21.0,17.4,14.0,91,59,31,30.84,30.64,10,1,14,0.00
2014-4-18,48.5,35.3,20.0,30.0,24.8,18.0,93,69,39,30.69,30.24,7,1,14,0.00
2014-4-19,51.9,40.2,27.6,38.0,30.5,26.0,96,71,49,30.43,30.15,12,2,26,0.00
2014-4-20,60.1,43.8,24.6,28.0,22.9,16.0,93,51,18,30.52,30.30,5,0,13,0.00
2014-4-21,75.7,51.6,28.9,41.0,31.4,26.0,89,54,17,30.30,29.78,8,1,14,0.00
2014-4-22,74.9,57.6,43.0,53.0,41.7,32.0,94,61,25,29.78,29.41,6,0,11,0.08
2014-4-23,51.4,46.0,40.7,50.0,40.2,33.0,98,81,66,29.62,29.40,17,4,27,0.01
2014-4-24,50.3,44.1,36.4,32.0,27.7,23.0,67,53,43,29.92,29.62,21,6,28,0.00
2014-4-25,64.7,48.0,28.5,32.0,25.3,17.0,90,49,17,30.00,29.78,9,0,13,0.00